Location: *
(45.8589°N, 4.7139°E)
Time: 19:24:52
(UTC+00:00)

Cosmos 2344 - Pass Details

Date: 09 April 2020
Orbit: 1251 x 2991 km, 63.3° (Epoch: 31 May)

Event Time Altitude Azimuth Distance (km) Brightness Sun altitude
Rises 22:23:58 0° 320° (NW) 4,653 7.5 -33.3°
Reaches altitude 10° 22:26:36 10° 320° (NW) 3,816 6.8 -33.5°
Maximum altitude 22:36:20 84° 234° (SW) 1,998 4.3 -34.1°
Enters shadow 22:38:43 64° 159° (SSE) 2,255 4.4 -34.3°
